Caslav, Czech Republic

8:57 PM CEST on October 19, 2017 (GMT +0200)
Caslav

Weather History for LKCV - October, 2013

Change the Weather History Date:

Friday, October 25, 2013

  Actual Average Record
Temperature  
Mean Temperature 55 °F -  
Max Temperature 66 °F - - ()
Min Temperature 44 °F - - ()
Degree Days  
Heating Degree Days 10    
Growing Degree Days 5 (Base 50)    
Moisture  
Dew Point 52 °F    
Average Humidity 94    
Maximum Humidity 100    
Minimum Humidity 77    
Precipitation  
Precipitation 0.00 in - - ()
Sea Level Pressure  
Sea Level Pressure 30.12 in    
Wind  
Wind Speed 3 mph ()    
Max Wind Speed 9 mph    
Max Gust Speed -    
Visibility 2.0 miles    
Events Fog    
T = Trace of Precipitation, MM = Missing Value Source: Averaged Metar Reports

Daily Weather History Graph

Daily Weather History Graph

Search for Another Location

Airport or City:

Trip Planner

Search our weather history database for the weather conditions in past years. The results will help you decide how hot, cold, wet, or windy it might be!

Date:

Astronomy

Oct. 25, 2013 Rise Set
Actual Time 7:36 AM CEST 5:47 PM CEST
Civil Twilight 7:03 AM CEST 6:21 PM CEST
Nautical Twilight 6:25 AM CEST 6:58 PM CEST
Astronomical Twilight 5:48 AM CEST 7:36 PM CEST
Moon 10:41 PM CEST (10/25) 1:16 PM CEST (10/25)
Length of Visible Light 11h 17m
Length of Day
10h 11m
Waning Gibbous, 65% of the Moon is Illuminated
Oct 25
Waning Gibbous
Oct 27
Last Quarter
Nov 3
New
Nov 10
First Quarter
Nov 17
Full

Hourly Weather History & Observations

Time (CEST) Temp. Dew Point Humidity Pressure Visibility Wind Dir Wind Speed Gust Speed Precip Events Conditions
12:00 AM 51.8 °F 51.8 °F 100% 30.15 in - SSE 3.5 mph - N/A   Clear
1:00 AM 51.8 °F 51.8 °F 100% 30.15 in - SSE 4.6 mph - N/A   Clear
2:00 AM 51.8 °F 51.8 °F 100% 30.15 in - SSE 5.8 mph - N/A   Clear
3:00 AM 50.0 °F 48.2 °F 94% 30.15 in - South 3.5 mph - N/A   Clear
4:00 AM 50.0 °F 48.2 °F 94% 30.12 in - SE 3.5 mph - N/A   Clear
5:00 AM 48.2 °F 48.2 °F 100% 30.15 in 1.9 mi Calm Calm - N/A   Mist
5:37 AM 48.2 °F 48.2 °F 100% 30.15 in 0.4 mi SSE 1.2 mph - N/A Fog Fog
6:00 AM 46.4 °F 46.4 °F 100% 30.15 in 0.2 mi Calm Calm - N/A Fog Fog
7:00 AM 48.2 °F 48.2 °F 100% 30.15 in 0.2 mi East 1.2 mph - N/A Fog Fog
8:00 AM 44.6 °F 44.6 °F 100% 30.15 in 0.2 mi Calm Calm - N/A Fog Fog
8:39 AM 48.2 °F 48.2 °F 100% 30.15 in 0.6 mi East 3.5 mph - N/A Fog Fog
9:00 AM 48.2 °F 48.2 °F 100% 30.15 in 0.6 mi Variable 1.2 mph - N/A Fog Fog
9:30 AM 50.0 °F 48.2 °F 94% 30.15 in 0.3 mi Calm Calm - N/A Fog Fog
10:00 AM 50.0 °F 48.2 °F 94% 30.15 in 0.3 mi NW 2.3 mph - N/A Fog Fog
10:10 AM 50.0 °F 50.0 °F 100% 30.15 in 0.7 mi Variable 1.2 mph - N/A   Mist
10:26 AM 51.8 °F 51.8 °F 100% 30.15 in 1.9 mi ENE 3.5 mph - N/A   Mist
11:00 AM 53.6 °F 53.6 °F 100% 30.15 in 3.7 mi Variable 2.3 mph - N/A   Unknown
12:00 PM 57.2 °F 53.6 °F 88% 30.12 in - Calm Calm - N/A   Clear
1:00 PM 60.8 °F 55.4 °F 82% 30.12 in - NNE 3.5 mph - N/A   Clear
2:00 PM 62.6 °F 57.2 °F 82% 30.09 in - East 4.6 mph - N/A   Clear
3:00 PM 66.2 °F 59.0 °F 78% 30.09 in 6.2 mi ESE 6.9 mph - N/A   Mostly Cloudy
4:00 PM 64.4 °F 57.2 °F 77% 30.09 in - SSE 9.2 mph - N/A   Clear
5:00 PM 62.6 °F 57.2 °F 82% 30.09 in - South 8.1 mph - N/A   Clear
6:00 PM 60.8 °F 57.2 °F 88% 30.09 in 6.2 mi South 5.8 mph - N/A   Overcast
7:00 PM 59.0 °F 55.4 °F 88% 30.09 in 6.2 mi SSE 5.8 mph - N/A   Scattered Clouds
8:00 PM 59.0 °F 55.4 °F 88% 30.09 in - SE 4.6 mph - N/A   Clear
9:00 PM 55.4 °F 55.4 °F 100% 30.09 in - ESE 1.2 mph - N/A   Clear
10:00 PM 55.4 °F 53.6 °F 94% 30.06 in - SE 4.6 mph - N/A   Clear
11:00 PM 53.6 °F 53.6 °F 100% 30.06 in - SSE 1.2 mph - N/A   Clear